Three Rivers, MI

10:34 AM EST on November 12, 2019 (GMT -0500)
Three Rivers Municipal-Haines

Weather History for KHAI - October, 2019

Change the Weather History Date:

Sunday, October 20, 2019

  Actual Average Record
Temperature  
Mean Temperature 58 °F -  
Max Temperature 68 °F 58 °F 85 °F (1953)
Min Temperature 48 °F 36 °F 20 °F (1972)
Degree Days  
Heating Degree Days 7    
Growing Degree Days 8 (Base 50)    
Moisture  
Dew Point 48 °F    
Average Humidity 75    
Maximum Humidity 91    
Minimum Humidity 51    
Precipitation  
Precipitation 0.00 in - - ()
Sea Level Pressure  
Sea Level Pressure 29.87 in    
Wind  
Wind Speed 1 mph (NNW)    
Max Wind Speed 7 mph    
Max Gust Speed -    
Visibility 10 miles    
Events Rain    
Averages and records for this station are not official NWS values.
T = Trace of Precipitation, MM = Missing Value Source: NWS Daily Summary

Daily Weather History Graph

Daily Weather History Graph

Search for Another Location

Airport or City:

Astronomy

Oct. 20, 2019 Rise Set
Actual Time 8:00 AM EDT 6:53 PM EDT
Civil Twilight 7:31 AM EDT 7:21 PM EDT
Nautical Twilight 6:59 AM EDT 7:54 PM EDT
Astronomical Twilight 6:27 AM EDT 8:26 PM EDT
Moon 11:57 PM EDT (10/20) 2:31 PM EDT (10/20)
Length of Visible Light 11h 49m
Length of Day
10h 53m
Waning Gibbous, 59% of the Moon is Illuminated
Oct 20
Waning Gibbous
Oct 21
Last Quarter
Oct 27
New
Nov 4
First Quarter
Nov 12
Full

Hourly Weather History & Observations

Time (EDT) Temp. Dew Point Humidity Pressure Visibility Wind Dir Wind Speed Gust Speed Precip Events Conditions
12:19 AM 48.0 °F 42.4 °F 81% 29.79 in 10.0 mi Calm Calm - N/A   Scattered Clouds
12:37 AM 48.0 °F 43.0 °F 83% 29.79 in 10.0 mi Calm Calm - N/A   Overcast
12:55 AM 48.4 °F 43.7 °F 84% 29.79 in 10.0 mi Calm Calm - N/A   Mostly Cloudy
12:56 AM 48.4 °F 43.7 °F 84% 29.79 in 10.0 mi Calm Calm - N/A   Mostly Cloudy
1:15 AM 49.1 °F 44.4 °F 84% 29.79 in 10.0 mi Calm Calm - N/A   Mostly Cloudy
1:35 AM 49.1 °F 44.2 °F 83% 29.78 in 10.0 mi Calm Calm - N/A   Mostly Cloudy
1:58 AM 49.1 °F 45.0 °F 86% 29.77 in 10.0 mi Calm Calm - N/A   Scattered Clouds
2:16 AM 49.6 °F 45.3 °F 85% 29.78 in 10.0 mi Calm Calm - N/A   Scattered Clouds
2:36 AM 49.3 °F 45.0 °F 85% 29.79 in 10.0 mi WNW 4.6 mph - N/A Rain Light Rain
2:55 AM 49.3 °F 45.0 °F 85% 29.80 in 10.0 mi Calm Calm - N/A Rain Light Rain
3:19 AM 51.1 °F 45.5 °F 81% 29.79 in 10.0 mi Calm Calm - N/A   Overcast
3:37 AM 51.1 °F 45.5 °F 81% 29.79 in 10.0 mi Calm Calm - N/A   Overcast
3:55 AM 50.9 °F 46.0 °F 83% 29.78 in 10.0 mi Calm Calm - N/A   Overcast
3:56 AM 50.9 °F 46.0 °F 83% 29.78 in 10.0 mi Calm Calm - N/A   Overcast
4:15 AM 51.1 °F 45.7 °F 82% 29.79 in 10.0 mi Calm Calm - N/A   Overcast
4:35 AM 50.4 °F 46.4 °F 86% 29.79 in 10.0 mi Calm Calm - N/A   Overcast
4:58 AM 51.1 °F 46.4 °F 84% 29.79 in 10.0 mi Calm Calm - N/A   Overcast
5:16 AM 49.8 °F 45.7 °F 86% 29.79 in 10.0 mi Calm Calm - N/A   Overcast
5:35 AM 50.0 °F 46.4 °F 87% 29.80 in 10.0 mi Calm Calm - N/A   Overcast
5:55 AM 49.1 °F 45.9 °F 89% 29.80 in 10.0 mi Calm Calm - N/A   Overcast
6:19 AM 49.5 °F 46.4 °F 89% 29.81 in 10.0 mi Calm Calm - N/A   Overcast
6:37 AM 50.2 °F 46.9 °F 89% 29.82 in 10.0 mi Calm Calm - N/A   Overcast
6:55 AM 50.0 °F 46.6 °F 88% 29.82 in 10.0 mi Calm Calm - N/A   Overcast
6:56 AM 50.0 °F 46.6 °F 88% 29.82 in 10.0 mi Calm Calm - N/A   Overcast
7:15 AM 50.9 °F 46.4 °F 85% 29.83 in 10.0 mi Calm Calm - N/A   Overcast
7:16 AM 50.9 °F 46.4 °F 85% 29.83 in 10.0 mi Calm Calm - N/A   Overcast
7:35 AM 51.6 °F 46.4 °F 82% 29.84 in 10.0 mi Calm Calm - N/A   Overcast
7:36 AM 51.4 °F 46.4 °F 83% 29.84 in 10.0 mi Calm Calm - N/A   Overcast
7:59 AM 51.1 °F 46.6 °F 85% 29.85 in 10.0 mi Calm Calm - N/A   Overcast
8:16 AM 50.9 °F 45.9 °F 83% 29.85 in 10.0 mi Calm Calm - N/A   Overcast
8:35 AM 50.9 °F 46.6 °F 85% 29.85 in 10.0 mi Calm Calm - N/A   Overcast
8:36 AM 50.9 °F 46.6 °F 85% 29.85 in 10.0 mi Calm Calm - N/A   Overcast
8:55 AM 51.6 °F 46.9 °F 84% 29.86 in 7.0 mi Calm Calm - N/A   Overcast
9:15 AM 52.3 °F 47.8 °F 85% 29.87 in 10.0 mi Calm Calm - N/A   Overcast
9:38 AM 53.8 °F 48.2 °F 81% 29.88 in 10.0 mi Calm Calm - N/A   Overcast
9:56 AM 54.1 °F 48.7 °F 82% 29.89 in 10.0 mi Calm Calm - N/A   Overcast
10:15 AM 55.9 °F 50.0 °F 80% 29.89 in 10.0 mi Calm Calm - N/A   Overcast
10:35 AM 57.6 °F 50.5 °F 77% 29.89 in 10.0 mi NNW 3.5 mph - N/A   Overcast
11:17 AM 61.7 °F 51.3 °F 69% 29.90 in 10.0 mi NW 6.9 mph - N/A   Mostly Cloudy
11:55 AM 62.2 °F 50.2 °F 65% 29.91 in 10.0 mi North 5.8 mph - N/A   Scattered Clouds
12:15 PM 62.6 °F 50.4 °F 64% 29.91 in 10.0 mi Calm Calm - N/A   Clear
12:20 PM 63.3 °F 50.9 °F 64% 29.91 in 10.0 mi NE 4.6 mph - N/A   Clear
12:38 PM 64.6 °F 50.0 °F 59% 29.91 in 10.0 mi NW 5.8 mph - N/A   Clear
12:56 PM 64.9 °F 50.0 °F 58% 29.91 in 10.0 mi NNE 5.8 mph - N/A   Scattered Clouds
1:15 PM 63.3 °F 49.5 °F 61% 29.91 in 10.0 mi Calm Calm - N/A   Scattered Clouds
1:35 PM 64.2 °F 50.4 °F 61% 29.91 in 10.0 mi WNW 6.9 mph - N/A   Clear
1:36 PM 64.0 °F 50.4 °F 61% 29.91 in 10.0 mi WNW 6.9 mph - N/A   Clear
1:59 PM 65.8 °F 49.8 °F 56% 29.91 in 10.0 mi Calm Calm - N/A   Clear
2:17 PM 66.0 °F 49.6 °F 55% 29.90 in 10.0 mi Calm Calm - N/A   Scattered Clouds
2:35 PM 65.1 °F 49.8 °F 58% 29.89 in 10.0 mi Calm Calm - N/A   Scattered Clouds
2:55 PM 66.7 °F 49.5 °F 54% 29.89 in 10.0 mi East 3.5 mph - N/A   Scattered Clouds
2:56 PM 66.9 °F 50.0 °F 54% 29.89 in 10.0 mi East 3.5 mph - N/A   Scattered Clouds
3:15 PM 68.0 °F 50.5 °F 54% 29.89 in 10.0 mi Calm Calm - N/A   Overcast
3:20 PM 67.5 °F 50.2 °F 54% 29.90 in 10.0 mi Calm Calm - N/A   Overcast
3:37 PM 67.1 °F 50.2 °F 55% 29.90 in 10.0 mi Calm Calm - N/A   Overcast
3:56 PM 67.5 °F 50.5 °F 55% 29.90 in 10.0 mi NW 3.5 mph - N/A   Mostly Cloudy
4:15 PM 66.2 °F 50.4 °F 57% 29.90 in 10.0 mi Calm Calm - N/A   Scattered Clouds
4:16 PM 66.4 °F 50.2 °F 56% 29.90 in 10.0 mi Calm Calm - N/A   Scattered Clouds
4:35 PM 68.5 °F 50.0 °F 52% 29.90 in 10.0 mi Calm Calm - N/A   Mostly Cloudy
4:59 PM 68.0 °F 49.1 °F 51% 29.90 in 10.0 mi Calm Calm - N/A   Overcast
5:17 PM 66.0 °F 49.6 °F 55% 29.90 in 10.0 mi NNW 4.6 mph - N/A   Overcast
5:35 PM 66.0 °F 49.1 °F 54% 29.90 in 10.0 mi NNW 3.5 mph - N/A   Scattered Clouds
5:55 PM 65.7 °F 49.8 °F 57% 29.90 in 10.0 mi NW 3.5 mph - N/A   Clear
5:56 PM 65.5 °F 49.8 °F 57% 29.90 in 10.0 mi NW 3.5 mph - N/A   Clear
6:15 PM 64.4 °F 50.2 °F 60% 29.91 in 10.0 mi Calm Calm - N/A   Clear
6:38 PM 63.1 °F 50.0 °F 62% 29.92 in 10.0 mi NNW 3.5 mph - N/A   Clear
6:56 PM 60.6 °F 49.8 °F 68% 29.92 in 10.0 mi Calm Calm - N/A   Clear
7:15 PM 58.8 °F 50.4 °F 73% 29.93 in 10.0 mi WNW 3.5 mph - N/A   Clear
7:16 PM 58.6 °F 50.2 °F 73% 29.93 in 10.0 mi WNW 3.5 mph - N/A   Clear
7:35 PM 56.1 °F 49.5 °F 78% 29.94 in 10.0 mi Calm Calm - N/A   Clear
7:59 PM 55.2 °F 49.6 °F 81% 29.94 in 10.0 mi Calm Calm - N/A   Clear
8:17 PM 54.0 °F 49.3 °F 84% 29.94 in 10.0 mi Calm Calm - N/A   Clear
8:35 PM 52.2 °F 47.1 °F 83% 29.95 in 10.0 mi Calm Calm - N/A   Scattered Clouds
8:36 PM 51.6 °F 46.8 °F 83% 29.95 in 10.0 mi Calm Calm - N/A   Scattered Clouds
8:55 PM 51.4 °F 48.4 °F 89% 29.95 in 10.0 mi Calm Calm - N/A   Scattered Clouds
9:15 PM 54.1 °F 49.8 °F 85% 29.95 in 10.0 mi Calm Calm - N/A   Mostly Cloudy
9:38 PM 54.0 °F 50.4 °F 88% 29.94 in 10.0 mi Calm Calm - N/A   Scattered Clouds
9:56 PM 53.6 °F 48.9 °F 84% 29.95 in 10.0 mi Calm Calm - N/A   Mostly Cloudy
10:15 PM 52.5 °F 48.7 °F 87% 29.95 in 10.0 mi Calm Calm - N/A   Scattered Clouds
10:35 PM 52.3 °F 49.5 °F 90% 29.95 in 7.0 mi Calm Calm - N/A   Scattered Clouds
10:59 PM 51.8 °F 49.1 °F 90% 29.95 in 10.0 mi Calm Calm - N/A   Overcast
11:17 PM 52.9 °F 50.2 °F 91% 29.95 in 10.0 mi Calm Calm - N/A   Mostly Cloudy
11:55 PM 52.7 °F 49.5 °F 89% 29.93 in 10.0 mi ENE 3.5 mph - N/A   Mostly Cloudy